Regional Weather Roundup
Issued by NWS

Home | Current Version | Previous Version | Graphics & Text | Print | Product List | Glossary On
Versions: 1 2 3 4 5 6 7 8 9 10 11 12 13 14 15 16 17 18 19 20 21 22 23 24 25 26 27 28 29 30 31 32 33 34 35 36 37 38 39 40 41 42 43 44 45 46 47 48 49 50
000
ASUS45 KTFX 311419
RWRMT
MONTANA REGIONAL WEATHER ROUNDUP
NATIONAL WEATHER SERVICE GREAT FALLS MT
800 AM MDT MON AUG 31 2015

NOTE: "FAIR" INDICATES FEW OR NO CLOUDS BELOW 12000 FEET WITH NO
SIGNIFICANT WEATHER AND/OR OBSTRUCTIONS TO VISIBILITY.

MTZ001>007-043-311500-
WEST OF THE DIVIDE

CITY           SKY/WX    TMP DP  RH WIND       PRES   REMARKS
KALISPELL      PTSUNNY   47  43  86 SW5       30.01R
MISSOULA       MOSUNNY   44  42  93 CALM      30.08R
BUTTE          MOSUNNY   42  35  76 S3        30.11S
MULLAN PASS    CLOUDY    39  36  89 SW9G25    30.08S
DEER LODGE       N/A     41  36  81 CALM      30.13S
EUREKA           N/A     55  43  62 SE10      29.97R
HAMILTON         N/A     50  39  66 S9        30.08R
LIBBY            N/A     48  48 100 CALM      30.02R
RONAN            N/A     51  44  77 CALM      30.08S
$$

MTZ008-052>055-311500-
SOUTHWEST MONTANA

CITY           SKY/WX    TMP DP  RH WIND       PRES   REMARKS
BOZEMAN        SUNNY     42  38  85 S5        30.07R
DILLON         SUNNY     49  36  61 S10       30.10R
W YELLOWSTONE  SUNNY     41  25  52 E3        30.18R
THREE FORKS      N/A     43  43 100 CALM      30.05S
TWIN BRIDGES     N/A     45  34  65 E6        30.08R
$$

MTZ009-010-012-014-046-048-049-054-311500-
EAST SLOPES AND CENTRAL MONTANA

CITY           SKY/WX    TMP DP  RH WIND       PRES   REMARKS
CUT BANK       PTSUNNY   57  33  40 W38G49    29.87R
GREAT FALLS    PTSUNNY   57  34  41 SW22G31   29.91R
MALMSTROM AFB  PTSUNNY   57  35  42 SW20G26   29.91S
HELENA         PTSUNNY   58  32  37 SW15G22   30.03S
CONRAD           N/A     44  38  79 CALM      29.91R
$$

MTZ011-013-016-021-045-047-050-051-311500-
NORTH CENTRAL MONTANA

CITY           SKY/WX    TMP DP  RH WIND       PRES   REMARKS
HAVRE          MOSUNNY   55  36  48 MISG      29.86R
LEWISTOWN      MOSUNNY   53  37  54 SW5       29.96R
N BAR RANCH      N/A     52  37  58 NW6       29.99S
CHINOOK          N/A     61  36  39 SW15      29.85S
FORT BENTON      N/A     59  34  38 S12       29.91R
$$

MTZ017>020-022>027-061-062-311500-
NORTHEAST MONTANA

CITY           SKY/WX    TMP DP  RH WIND       PRES   REMARKS
GLASGOW        SUNNY     54  44  69 W9        29.87R
JORDAN           N/A     55  41  59 CALM      29.93R
SIDNEY         SUNNY     63  48  59 SW10      29.89R
WOLF POINT     SUNNY     57  48  72 S7        29.88R
MALTA            N/A     53  42  66 W9        29.83S
PLENTYWOOD       N/A     57  48  72 W14       29.83R
POPLAR           N/A     57  48  72 SW12      29.88R
$$

MTZ028>42-056>058-311500-
SOUTHCENTRAL AND SOUTHEAST MONTANA

CITY           SKY/WX    TMP DP  RH WIND       PRES   REMARKS
BAKER          SUNNY     56  51  84 W8        29.97R
BILLINGS       MOSUNNY   58  42  55 SW7       30.00R
LIVINGSTON     MOSUNNY   53  37  54 W9        30.03S
MILES CITY     SUNNY     58  50  75 SW9       29.96R
FORSYTH          N/A     61  46  59 SW6       29.96S
LAUREL           N/A     57  41  55 CALM      29.98R
ROUNDUP          N/A     55  35  46 SW12      29.89S
$$

REGIONAL REPORTS...DAKOTAS

CITY           SKY/WX    TMP DP  RH WIND       PRES   REMARKS
WILLISTON      SUNNY     61  49  64 SW10      29.86R
MINOT          PTSUNNY   63  53  70 W7        29.79R
DICKINSON      SUNNY     60  52  74 NW9       29.89R
BEACH            N/A     57  55  94 W10       29.95R
CROSBY           N/A     57  50  77 W17       29.81R
BISMARCK       CLOUDY    68  58  70 NW14G23   29.82R
GRAND FORKS    CLOUDY    66  61  84 S9        29.65F
FARGO          SUNNY     70  61  73 S8        29.70R
BUFFALO SD       N/A     60  52  74 NW18      29.89R
RAPID CITY     CLOUDY    67  53  61 N14       29.95R
$$

REGIONAL REPORTS...WYOMING/IDAHO/WASHINGTON

CITY           SKY/WX    TMP DP  RH WIND       PRES   REMARKS
GILLETTE       PTSUNNY   57  48  72 N8        30.05R
SHERIDAN       SUNNY     56  43  61 S6        30.03R
BUFFALO WY     MOSUNNY   54  43  66 S6        30.10R
CODY           SUNNY     54  43  66 CALM      30.05R
YELLOWSTONE LA   N/A     38  27  64 CALM      30.25R
IDAHO FALLS    SUNNY     50  35  56 SW9       30.13R
SALMON         MOSUNNY   46  37  71 CALM      30.11R
BOISE          CLEAR     53  41  63 S5        30.08R
SPOKANE        CLOUDY    50  45  83 S8        30.02S
$$

REGIONAL REPORTS...ALBERTA

CITY           SKY/WX    TMP DP  RH WIND       PRES   REMARKS
EDMONTON       PTSUNNY   54  39  58 SW5       29.54R
CALGARY        PTSUNNY   54  37  54 S5        29.67R
LETHBRIDGE     PTSUNNY   61  36  39 SW16G24   29.78F
MEDICINE HAT   PTSUNNY   55  37  50 SW18G28   29.75R
WATERTON GATE    N/A     54  36  50 SW14G23     N/A
CARDSTON         N/A     55  32  41 W13G25      N/A
MILK RIVER       N/A     57  34  41 W14G22      N/A
ONEFOUR          N/A     59  34  38 W16G23      N/A
$$

REGIONAL REPORTS...SASKATCHEWAN

CITY           SKY/WX    TMP DP  RH WIND       PRES   REMARKS
SWIFT CURRENT  SUNNY     57  37  47 W26G36    29.71R
REGINA         MOSUNNY   55  50  82 SW17G24   29.70R
SASKATOON      MOSUNNY   55  45  67 SW15      29.56R
CYPRESS HILLS    N/A     46  34  61 SW10        N/A
VAL MARIE        N/A     57  39  51 W18G24      N/A
ROCKGLEN         N/A     52  43  71 SW17        N/A
ASSINIBOIA       N/A     46  43  87 S5          N/A
$$


USA.gov is the U.S. government's official web portal to all federal, state and local government web resources and services.